Location: Ch�tillon
(48.8024°N, 2.2935°E)
Time: 02:21:40
(UTC+00:00)

STRAND 1 - Pass Details

Date: 05 July 2022
Orbit: 767 x 781 km, 98.4° (Epoch: 07 August)

Event Time Altitude Azimuth Distance (km) Brightness Sun altitude
Rises 20:41:33 0° 2° (N) 3,271 ? -6.4°
Reaches altitude 10° 20:44:37 10° 343° (NNW) 2,336 ? -6.8°
Maximum altitude 20:47:50 17° 304° (NW) 1,884 ? -7.1°
Drops below altitude 10° 20:51:03 10° 265° (W) 2,321 ? -7.5°
Sets 20:54:05 0° 246° (WSW) 3,240 ? -7.8°
